When you browse on this site, cookies collect data to enhance your experience and personalize the content and advertising you see.
Visit our Privacy Policy to learn more. By continuing to use the site, you agree to this use of cookies and data.
  • En España
  • Lista de países
  • Para 7 días
  • Temperatura del agua
  • El tiempo en el mapa
  • Informadores
  • user-avatar
    Iniciar sesión

    Tiempo cada hora Zamar

    Hoy, 15 Noviembre, Viernes

    Tiempo Temperatura Precipitaciones Viento Presión Humedad
    00:00 +15°C° 0 mm 2 mps 584 mmHg 45%
    01:00 +14°C° 0 mm 2 mps 584 mmHg 45%
    02:00 +14°C° 0 mm 2 mps 583 mmHg 45%
    03:00 +14°C° 0 mm 2 mps 582 mmHg 48%
    04:00 +13°C° 0 mm 2 mps 583 mmHg 48%
    05:00 +13°C° 0 mm 2 mps 583 mmHg 49%
    06:00 +13°C° 0 mm 2 mps 583 mmHg 49%
    07:00 +14°C° 0 mm 2 mps 584 mmHg 45%
    08:00 +16°C° 0 mm 2 mps 585 mmHg 40%
    09:00 +18°C° 0 mm 2 mps 586 mmHg 36%
    10:00 +19°C° 0 mm 2 mps 586 mmHg 35%
    11:00 +20°C° 0 mm 2 mps 586 mmHg 33%
    12:00 +21°C° 0 mm 2 mps 586 mmHg 31%
    13:00 +21°C° 0 mm 2 mps 585 mmHg 31%
    14:00 +21°C° 0 mm 3 mps 585 mmHg 32%
    15:00 +21°C° 0 mm 3 mps 584 mmHg 32%
    16:00 +20°C° 0 mm 3 mps 584 mmHg 40%
    17:00 +19°C° 0 mm 3 mps 584 mmHg 47%
    18:00 +18°C° 0 mm 3 mps 584 mmHg 54%
    19:00 +17°C° 0.2 mm 2 mps 584 mmHg 56%
    20:00 +17°C° 0.2 mm 2 mps 584 mmHg 57%
    21:00 +16°C° 0.2 mm 1 mps 584 mmHg 59%
    22:00 +16°C° 0.1 mm 1 mps 584 mmHg 56%
    23:00 +16°C° 0.1 mm 1 mps 584 mmHg 53%

    Mañana, 16 Noviembre, Sábado

    Tiempo Temperatura Precipitaciones Viento Presión Humedad
    00:00 +15°C° 0.1 mm 1 mps 584 mmHg 50%
    01:00 +15°C° 0 mm 1 mps 583 mmHg 50%
    02:00 +14°C° 0 mm 1 mps 582 mmHg 51%
    03:00 +14°C° 0 mm 1 mps 582 mmHg 51%
    04:00 +14°C° 0 mm 1 mps 582 mmHg 51%
    05:00 +13°C° 0 mm 1 mps 582 mmHg 51%
    06:00 +13°C° 0 mm 1 mps 582 mmHg 50%
    07:00 +15°C° 0 mm 1 mps 583 mmHg 46%
    08:00 +16°C° 0 mm 1 mps 584 mmHg 42%
    09:00 +19°C° 0 mm 1 mps 585 mmHg 38%
    10:00 +20°C° 0 mm 1 mps 585 mmHg 36%
    11:00 +20°C° 0 mm 2 mps 585 mmHg 33%
    12:00 +21°C° 0 mm 2 mps 585 mmHg 30%
    13:00 +21°C° 0 mm 3 mps 584 mmHg 31%
    14:00 +22°C° 0 mm 3 mps 584 mmHg 31%
    15:00 +22°C° 0 mm 4 mps 583 mmHg 32%
    16:00 +20°C° 0.1 mm 4 mps 583 mmHg 42%
    17:00 +19°C° 0.1 mm 3 mps 583 mmHg 53%
    18:00 +18°C° 0.1 mm 3 mps 583 mmHg 63%
    19:00 +17°C° 0.4 mm 2 mps 583 mmHg 66%
    20:00 +17°C° 0.4 mm 2 mps 583 mmHg 69%
    21:00 +16°C° 0.4 mm 1 mps 583 mmHg 71%
    22:00 +16°C° 0.2 mm 1 mps 583 mmHg 70%
    23:00 +16°C° 0.2 mm 1 mps 583 mmHg 69%

    Pasado mañana, 17 Noviembre, Domingo

    Tiempo Temperatura Precipitaciones Viento Presión Humedad
    00:00 +15°C° 0.2 mm 0 mps 583 mmHg 68%
    01:00 +15°C° 0.1 mm 0 mps 582 mmHg 69%
    02:00 +14°C° 0.1 mm 0 mps 582 mmHg 71%
    03:00 +14°C° 0.1 mm 0 mps 582 mmHg 72%
    04:00 +14°C° 0.1 mm 0 mps 582 mmHg 73%
    05:00 +14°C° 0.1 mm 1 mps 582 mmHg 74%
    06:00 +14°C° 0.1 mm 1 mps 582 mmHg 76%
    07:00 +15°C° 0 mm 1 mps 583 mmHg 68%
    08:00 +16°C° 0 mm 1 mps 584 mmHg 61%
    09:00 +19°C° 0 mm 1 mps 584 mmHg 53%
    10:00 +20°C° 0 mm 1 mps 584 mmHg 47%
    11:00 +20°C° 0 mm 2 mps 584 mmHg 41%
    12:00 +21°C° 0 mm 3 mps 584 mmHg 34%
    13:00 +21°C° 0 mm 3 mps 584 mmHg 34%
    14:00 +22°C° 0 mm 3 mps 584 mmHg 34%
    15:00 +22°C° 0 mm 4 mps 583 mmHg 34%
    16:00 +21°C° 0 mm 3 mps 583 mmHg 41%
    17:00 +20°C° 0 mm 3 mps 583 mmHg 47%
    18:00 +19°C° 0 mm 3 mps 583 mmHg 53%
    19:00 +18°C° 0.1 mm 2 mps 584 mmHg 59%
    20:00 +18°C° 0.1 mm 1 mps 584 mmHg 64%
    21:00 +18°C° 0.1 mm 1 mps 584 mmHg 70%
    22:00 +16°C° 0.1 mm 1 mps 584 mmHg 71%
    23:00 +16°C° 0.1 mm 1 mps 583 mmHg 72%

    18 Noviembre, Lunes

    Tiempo Temperatura Precipitaciones Viento Presión Humedad
    00:00 +15°C° 0.1 mm 0 mps 583 mmHg 73%
    01:00 +14°C° 0 mm 0 mps 583 mmHg 73%
    02:00 +14°C° 0 mm 0 mps 582 mmHg 74%
    03:00 +14°C° 0 mm 0 mps 582 mmHg 74%
    04:00 +13°C° 0 mm 0 mps 582 mmHg 75%
    05:00 +13°C° 0 mm 0 mps 582 mmHg 76%
    06:00 +13°C° 0 mm 0 mps 582 mmHg 77%
    07:00 +14°C° 0 mm 0 mps 583 mmHg 68%
    08:00 +16°C° 0 mm 0 mps 584 mmHg 59%
    09:00 +17°C° 0 mm 0 mps 585 mmHg 50%
    10:00 +21°C° 0 mm 1 mps 585 mmHg 46%
    11:00 +21°C° 0 mm 2 mps 586 mmHg 41%
    12:00 +23°C° 0 mm 2 mps 586 mmHg 36%
    13:00 +22°C° 0 mm 3 mps 585 mmHg 39%
    14:00 +22°C° 0 mm 4 mps 585 mmHg 42%
    15:00 +21°C° 0 mm 4 mps 584 mmHg 45%
    16:00 +20°C° 0.1 mm 4 mps 584 mmHg 51%
    17:00 +19°C° 0.1 mm 3 mps 584 mmHg 57%
    18:00 +18°C° 0.1 mm 3 mps 584 mmHg 63%
    19:00 +18°C° 0.3 mm 2 mps 584 mmHg 65%
    20:00 +18°C° 0.3 mm 1 mps 584 mmHg 67%
    21:00 +18°C° 0.3 mm 1 mps 584 mmHg 69%
    22:00 +16°C° 0.1 mm 0 mps 584 mmHg 69%
    23:00 +16°C° 0.1 mm 0 mps 584 mmHg 69%

    19 Noviembre, Martes

    Tiempo Temperatura Precipitaciones Viento Presión Humedad
    00:00 +15°C° 0.1 mm 0 mps 584 mmHg 69%
    01:00 +15°C° 0 mm 0 mps 583 mmHg 69%
    02:00 +15°C° 0 mm 0 mps 583 mmHg 69%
    03:00 +14°C° 0 mm 0 mps 582 mmHg 68%
    04:00 +14°C° 0 mm 0 mps 582 mmHg 67%
    05:00 +14°C° 0 mm 0 mps 582 mmHg 65%
    06:00 +13°C° 0 mm 0 mps 582 mmHg 63%
    07:00 +15°C° 0 mm 0 mps 583 mmHg 55%
    08:00 +18°C° 0 mm 1 mps 585 mmHg 47%
    09:00 +20°C° 0 mm 1 mps 586 mmHg 39%
    10:00 +20°C° 0 mm 2 mps 586 mmHg 37%
    11:00 +21°C° 0 mm 2 mps 585 mmHg 35%
    12:00 +22°C° 0 mm 3 mps 585 mmHg 32%
    13:00 +22°C° 0 mm 3 mps 585 mmHg 33%
    14:00 +22°C° 0 mm 4 mps 585 mmHg 35%
    15:00 +22°C° 0 mm 4 mps 584 mmHg 36%
    16:00 +21°C° 0 mm 4 mps 584 mmHg 43%
    17:00 +20°C° 0 mm 3 mps 583 mmHg 50%
    18:00 +19°C° 0 mm 3 mps 583 mmHg 57%
    19:00 +18°C° 0 mm 2 mps 583 mmHg 60%
    20:00 +19°C° 0 mm 1 mps 583 mmHg 64%
    21:00 +18°C° 0 mm 1 mps 583 mmHg 67%
    22:00 +16°C° 0 mm 0 mps 583 mmHg 69%
    23:00 +16°C° 0 mm 0 mps 583 mmHg 70%

    20 Noviembre, Miércoles

    Tiempo Temperatura Precipitaciones Viento Presión Humedad
    00:00 +15°C° 0 mm 0 mps 583 mmHg 71%
    01:00 +15°C° 0 mm 0 mps 582 mmHg 72%
    02:00 +15°C° 0 mm 0 mps 582 mmHg 73%
    03:00 +14°C° 0 mm 0 mps 581 mmHg 74%
    04:00 +14°C° 0 mm 0 mps 581 mmHg 76%
    05:00 +13°C° 0 mm 0 mps 581 mmHg 78%
    06:00 +13°C° 0 mm 0 mps 581 mmHg 80%
    07:00 +16°C° 0 mm 1 mps 582 mmHg 70%
    08:00 +18°C° 0 mm 1 mps 583 mmHg 60%
    09:00 +20°C° 0 mm 1 mps 584 mmHg 50%
    10:00 +19°C° 0 mm 2 mps 584 mmHg 45%
    11:00 +20°C° 0 mm 3 mps 584 mmHg 41%
    12:00 +21°C° 0 mm 3 mps 584 mmHg 36%
    13:00 +21°C° 0 mm 4 mps 584 mmHg 38%
    14:00 +21°C° 0 mm 4 mps 583 mmHg 39%
    15:00 +21°C° 0 mm 4 mps 583 mmHg 41%
    16:00 +20°C° 0 mm 3 mps 583 mmHg 46%
    17:00 +19°C° 0 mm 3 mps 583 mmHg 51%
    18:00 +19°C° 0 mm 2 mps 583 mmHg 56%
    19:00 +18°C° 0.1 mm 2 mps 583 mmHg 60%
    20:00 +19°C° 0.1 mm 1 mps 583 mmHg 64%
    21:00 +16°C° 0.1 mm 0 mps 583 mmHg 67%
    22:00 +18°C° 0.2 mm 1 mps 583 mmHg 67%
    23:00 +18°C° 0.2 mm 1 mps 583 mmHg 68%
    Mostrar más